California State Race - SHASTA CITY

Station: SHASTA CITY - A Race

Distance: 239.04 Miles    

Release: 19-Oct-2019 11:00

Weather Release:    Arrival: PARTLY COULDY

Wind at Release: CALM     Wind at Arrival: CALM

Temp at Release: 45°    Temp at Arrival: 67°

Lofts: 75

Birds: 127

Clocked: 112

Good Luck to Everyone!
Drops Pos Breeder Pigeon Name Color Sex Ent Arrival Speed To Win Elg Pd
1 Old West Enders - CA 9347-AU19-GSF BB C 1 16:13:22.20 1342.538 00:00:00 Yes
2 Bieche & Lee - CA 9331-AU19-BIEC BC H 1 16:13:23.40 1342.452 00:00:01 Yes
3 Mihaela Chelaru - CA 0101-AU19-BPRC DC C 1 16:13:24.00 1342.410 00:00:02 Yes
4 Duane Gragg - CA 0997-AU19-KEY BC H 1 16:13:25.40 1342.310 00:00:03 Yes
- 1-DROP 16:13:24.00 1341.310
5 Chelaru Family Loft - CA 0116-AU19-BPRC BC H 1 16:15:22.10 1334.031 00:02:00 Yes
6 Mathews Brothers - CA 0203-AU19-MATH RGRZ 0 1 16:15:23.30 1333.946 00:02:01 Yes
7 Steve Pereira - CA 2429-AU19-GSF MLY H 1 16:15:26.60 1333.714 00:02:04 Yes
8 Marco Parra - CA 1004-AU19-TULE RCPD 0 1 16:15:31.00 1333.404 00:02:09 Yes
9 Laszlo Zugor - CA 5303-AU19-SRP BC H 1 16:15:47.90 1332.215 00:02:26 Yes
- 2-DROP 16:15:46.00 1331.215
10 John Hedderson - CA 9311-AU19-GSF BB C 1 16:21:58.00 1306.692 00:08:36 Yes
11 Duane Gragg - CA 0933-AU19-KEY BB H 2 16:21:59.10 1306.617 00:08:37 Yes
12 Ron Heiser - CA 0965-AU19-ARPU BC H 1 16:22:00.30 1306.536 00:08:38 Yes
13 Master One - CA 9225-AU19-COOK LTCK H 1 16:23:15.30 1301.484 00:09:53 Yes
14 Denis Eastwood - CA 0127-AU19-HANG BB H 1 16:23:17.00 1301.370 00:09:55 Yes
15 Dan Severns - CA 80741-AU19-MAN BC H 1 16:23:18.80 1301.249 00:09:57 Yes
16 Jim Cain - CA 6516-AU19-FSC BB H 1 16:24:45.20 1295.479 00:11:23 Yes
17 C.J. Watkins - CA 1836-AU19-PASO BB C 1 16:24:58.70 1294.582 00:11:37 Yes
18 Prout's Loft - CA 12579-AU19-ARPU BB H 1 16:25:03.80 1294.244 00:11:42 Yes
19 Darryl Coston - CA 1842-AU19-ARPU BC H 1 16:26:32.50 1288.384 00:13:10 Yes
20 Minerva Fernandez - CA 9229-AU19-COOK BB H 1 16:29:20.70 1277.418 00:15:58 Yes
21 Joe Jauhal - CA 0132-AU19-WSJ BC C 1 16:29:43.10 1275.971 00:16:21 Yes
22 John Partridge - CA 1648-AU19-PASO BC H 1 16:29:57.30 1275.056 00:16:35 Yes
23 Gold Star Loft - CA 1671-AU19-STON BB H 1 16:30:00.30 1274.863 00:16:38 Yes
24 Armando De La O - CA 9117-AU19-COOK LTCK H 1 16:30:01.80 1274.766 00:16:40 Yes
25 Humberto Saenz - CA 9054-AU19-CGR BCSP H 1 16:30:03.00 1274.689 00:16:41 Yes
26 Robert Lin - CA 19078-AU19-SVS DC H 1 16:30:22.40 1273.442 00:17:00 Yes
27 John Hedderson - CA 9304-AU19-GSF BC C 2 16:31:54.40 1267.559 00:18:32 Yes
28 Frank Meder - CA 19044-AU19-TBW MLY H 1 16:31:54.90 1267.527 00:18:33 Yes
29 Silicon Valley Syndicate - CA 19079-AU19-SVS BBWF H 1 16:31:55.60 1267.482 00:18:33 Yes
30 C.J. Watkins - CA 1826-AU19-PASO DC H 2 16:31:56.60 1267.419 00:18:34 Yes
31 John Partridge - CA 9265-AU19-GSF BB C 2 16:31:57.50 1267.361 00:18:35 Yes
32 Sal Perez - CA 0088-AU19-SFR BCWF H 1 16:31:57.70 1267.349 00:18:35 Yes
33 Stanton Woody - CA 80510-AU19-MAN BB H 1 16:31:58.00 1267.330 00:18:36 Yes
34 Prout's Loft - CA 9345-AU19-GSF BB C 2 16:31:59.50 1267.234 00:18:37 Yes
35 Jim Vander Heide - CA 0131-AU19-OCF BCTK H 1 16:31:59.80 1267.215 00:18:38 Yes
36 Larry Cook - CA 2559-AU19-LCOO BB H 1 16:32:00.40 1267.177 00:18:38 Yes
37 Richard Norgrove - CA 90866-AU19-SOC BC H 1 16:32:00.90 1267.145 00:18:39 Yes
38 Bieche & Lee - CA 9258-AU19-BIEC BB H 2 16:32:01.80 1267.088 00:18:40 Yes
39 Avelino Loft - CA 0379-AU19-HAN BBWF H 1 16:32:04.40 1266.922 00:18:42 Yes
40 John Karnofel - CA 0008-AU19-KFL BC H 1 16:32:05.20 1266.872 00:18:43 Yes
41 Trina Dewitt - CA 1827-AU19-PASO DC C 1 16:32:05.80 1266.833 00:18:44 Yes
42 Andrew Broster - CA 3740-AU19-ARC BB H 1 16:32:06.20 1266.808 00:18:44 Yes
43 De Vriend Lofts - CA 5773-AU19-FSC BC H 1 16:32:08.10 1266.687 00:18:46 Yes
44 Steve Sterchi - CA 1919-AU19-SR BB H 1 16:32:51.00 1263.966 00:19:29 Yes
45 Christian Gluck - CA 0779-AU19-SD BC H 1 16:32:52.30 1263.884 00:19:30 Yes
46 Zack Jones - CA 1956-AU19-MTZ BC H 1 16:32:54.20 1263.764 00:19:32 Yes
47 Richard Norgrove - CA 9258-AU19-GSF BCPD H 2 16:32:54.70 1263.732 00:19:33 Yes
48 Gary Robins - CA 0120-AU19-OCF DC 0 1 16:32:55.90 1263.656 00:19:34 Yes
49 Vidal Gonzalez - CA 9262-AU19-GSF RC C 1 16:32:56.00 1263.650 00:19:34 Yes
50 Richard Norgrove - CA 90875-AU19-SOC BC C 3 16:33:00.60 1263.359 00:19:38 Yes
51 Steve Hendricks - CA 3801-AU19-ARC BB H 1 16:33:02.20 1263.258 00:19:40 Yes
52 Mathews Brothers - CA 9316-AU19-GSF BBWF H 2 16:33:07.70 1262.910 00:19:46 Yes
53 Wessel Family Lofts - CA 3027-AU19-ARC BB H 1 16:33:15.50 1262.417 00:19:53 Yes
54 Padilla - CA 0729-AU19-SFPC BB C 1 16:33:33.00 1261.314 00:20:11 Yes
55 Pat Siino - CA 9126-AU19-COOK BB H 1 16:34:30.60 1257.694 00:21:08 Yes
56 Armando De La O - CA 9111-AU19-COOK BB H 2 16:34:43.80 1256.867 00:21:22 Yes
57 Robert Lin - CA 19084-AU19-SVS DCPD H 2 16:35:06.80 1255.429 00:21:45 Yes
58 Jim Vander Heide - CA 0129-AU19-OCF BC C 2 16:35:10.60 1255.192 00:21:48 Yes
59 Fernando Gonzalez - CA 1959-AU19-MTZ BC C 1 16:36:13.80 1251.260 00:22:52 Yes
60 Wessel Family Lofts - CA 3029-AU19-ARC BB H 2 16:36:15.90 1251.130 00:22:54 Yes
61 De Vriend Lofts - CA 5768-AU19-FSC BBPH H 2 16:36:21.70 1250.770 00:23:00 Yes
62 Barbara Shulman - CA 2557-AU19-WSJ DC H 1 16:52:30.00 1193.507 00:39:08 Yes
63 Master One - CA 9228-AU19-COOK BB H 2 17:02:44.50 1159.809 00:49:22 Yes
64 Ted Little - CA 2652-AU19-ARPU BCWF H 1 17:13:38.70 1125.965 01:00:16 Yes
65 Sal Perez - CA 14062-AU19-AA BC H 2 17:13:39.50 1125.925 01:00:17 Yes
66 John Partridge - CA 9339-AU19-GSF BC C 3 17:13:42.20 1125.789 01:00:20 Yes
67 Jim Edgeworth - CA 2739-AU19-ARPU BB C 1 17:13:42.50 1125.774 01:00:20 Yes
68 Osty Loft - CA 4583-AU19-JEDD BB C 1 17:17:35.50 1114.196 01:04:13 Yes
69 Dan Severns - CA 80739-AU19-MAN BB H 2 17:21:54.60 1101.598 01:08:32 Yes
70 Silicon Valley Syndicate - CA 19075-AU19-SVS BB C 2 17:32:30.60 1071.848 01:19:08 Yes
71 Fred Belus - CA 0249-AU19-BPRC BC H 1 17:32:31.60 1071.803 01:19:09 Yes
72 Steve Paine - CA 0444-AU19-HOP BC 1 1 17:32:36.70 1071.571 01:19:14 Yes
73 Samuel Gomez - CA 5665-AU19-JEDD BBWF H 1 17:32:39.80 1071.430 01:19:18 Yes
74 Padilla - CA 0728-AU19-SFPC BB H 2 17:40:20.10 1050.898 01:26:58 Yes
75 Pat Siino - CA 9118-AU19-COOK LTCK H 2 17:54:59.60 1013.778 01:41:37 Yes
76 Andrew Broster - CA 3739-AU19-ARC BB H 2 17:55:16.30 1013.099 01:41:54 Yes
77 Dr. Kelly - CA 3327-AU19-ARC BBSP H 1 18:07:30.50 984.100 01:54:08 Yes
78 Mike Gonigan - CA 80309-AU19-MAN BB H 1 18:13:20.10 970.868 01:59:58 Yes
79 Mike Gonigan - CA 80305-AU19-MAN BB H 2 18:13:44.20 969.969 02:00:22 Yes
80 Pat Siino - CA 9248-AU19-COOK BC C 3 18:17:21.30 961.944 02:03:59 Yes
81 Frank Meder - CA 19046-AU19-TBW MLY C 2 18:25:21.70 944.651 02:11:59 Yes
82 Mike Belus - CA 9355-AU19-GSF BC H 1 18:36:00.20 922.605 02:22:38 Yes
83 Perez-Lafauci - CA 0084-AU19-SFR BC C 1 18:49:03.90 896.914 02:35:42 Yes
84 Mike Belus - CA 9276-AU19-GSF BC C 2 2019-10-20 07:38:27.50 806.127 03:28:31 Yes
85 Gudino Loft - CA 3078-AU19-GSF BCPD C 1 2019-10-20 08:08:30.60 762.236 03:58:34 Yes
86 Partridge Family Loft - CA 1763-AU19-PASO BB C 1 2019-10-20 08:11:00.40 758.804 04:01:04 Yes
87 Sal Perez - CA 0086-AU19-SFR DC H 3 2019-10-20 08:17:57.90 749.399 04:08:02 Yes
88 Joyce Stierlin - CA 19255-AU19-A BB C 1 2019-10-20 08:32:52.70 730.006 04:22:57 Yes
89 Robert Lin - CA 19064-AU19-SVS BCWF C 3 2019-10-20 08:36:59.20 724.839 04:27:03 Yes
90 Lopez/Saenz - CA 9092-AU19-CGR BB C 1 2019-10-20 08:42:49.30 717.625 04:32:53 Yes
91 Armando Vasquez - CA 0004-AU19-WSJ BB C 1 2019-10-20 08:51:33.40 707.089 04:41:37 Yes
92 Van Gruen Loft - CA 1942-AU19-VANG BC H 1 2019-10-20 09:06:30.90 689.749 04:56:35 Yes
93 Humberto Saenz - CA 9057-AU19-CGR BB H 2 2019-10-20 09:06:54.40 689.306 04:56:58 Yes
94 Frank Meder - CA 19040-AU19-TBW BCWF C 3 2019-10-20 09:21:35.00 673.120 05:11:39 Yes
95 Hung-Wen Hung - CA 19081-AU19-SVS BB C 1 2019-10-20 09:37:18.10 656.607 05:27:22 Yes
96 Silicon Valley Syndicate - CA 19070-AU19-SVS BB H 3 2019-10-20 09:51:10.50 642.691 05:41:14 Yes
97 Stanton Woody - CA 80509-AU19-MAN BC H 2 2019-10-20 10:01:34.50 632.640 05:51:38 Yes
98 Jim Vander Heide - CA 9272-AU19-GSF BC C 3 2019-10-20 10:27:36.30 608.810 06:17:40 Yes

There are 127 bird records

Note: These Race Results are unofficial and subject to change until verified by the Race Committee and declared final.